Meteo Giornale » Osservazioni meteo Italia » Pisa-S Giusto

ore: 12:15 - Osservazioni Meteo Pisa-S Giusto
Lat. 43° 41' N Lon. 10° 23' E Alt. 2 metri s.l.m.

sereno Europe/Rome

27 °C

Sereno

Temp. 24 Ore

18 °C

29 °C

Est

9.3 Km/h

Dew point 20 °C

Umidità 65 %

Visibilità  10 Km

Il sole sorge alle ore 05:50

Il sole tramonta alle ore 20:58

Data e Ora Cielo e Fenomeni T °C DP °C Um. % Pres. hPa Vis. km Vento km/h
Oggi h: 12:15 sereno Sereno 27 20 65 1012 10 E 9.3
Oggi h: 11:45 sereno Sereno 27 20 65 1013 10 E/SE 11.1
Oggi h: 11:15 sereno Sereno 27 20 65 1013 10 E 13
Oggi h: 10:45 sereno Sereno 27 21 69 1013 10 SE 13
Oggi h: 10:15 sereno Sereno 25 20 73 1013 10 E/SE 11.1
Oggi h: 09:45 sereno Sereno 25 21 78 1014 10 E/SE 11.1
Oggi h: 09:15 sereno Sereno 24 21 83 1014 10 E 13
Oggi h: 08:45 sereno Sereno 23 21 88 1014 10 E/SE 13
Oggi h: 08:15 poco_nuvoloso Poco Nuvoloso 22 21 94 1014 10 E/SE 14.8
Oggi h: 07:45 poco_nuvoloso Poco Nuvoloso 21 20 94 1013 10 E/SE 9.3
Oggi h: 07:15 nuvoloso Nuvoloso 20 20 100 1013 10 E/SE 13
Oggi h: 06:45 nuvoloso Nuvoloso 18 18 100 1013 10 SE 7.4
Oggi h: 06:15 poco_nuvoloso Poco Nuvoloso 18 18 100 1013 10 E/SE 9.3
Oggi h: 05:45 poco_nuvoloso Poco Nuvoloso 18 18 100 1014 10 N 3.7
Oggi h: 05:15 sereno Sereno 19 19 100 1014 10 N 3.7
Oggi h: 04:45 sereno Sereno 20 20 100 1014 10 N 1.8
Oggi h: 04:15 sereno Sereno 19 19 100 1014 10 E 9.3
Oggi h: 03:45 sereno Sereno 19 19 100 1014 10 E 7.4
Oggi h: 03:15 sereno Sereno 19 19 100 1014 10 S/SE 7.4
Oggi h: 02:45 sereno Sereno 20 20 100 1014 10 E/SE 7.4
Oggi h: 02:15 poco_nuvoloso Poco Nuvoloso 20 20 100 1014 10 E/SE 11.1
Oggi h: 01:45 poco_nuvoloso Poco Nuvoloso 20 20 100 1014 10 E 9.3
Oggi h: 01:15 poco_nuvoloso Poco Nuvoloso 21 21 100 1014 10 N 3.7
Oggi h: 00:45 poco_nuvoloso Poco Nuvoloso 21 21 100 1014 10 N 3.7
Oggi h: 00:15 poco_nuvoloso Poco Nuvoloso 21 21 100 1014 10 N 0
Ieri h: 23:45 poco_nuvoloso Poco Nuvoloso 22 22 100 1014 10 N 3.7
Ieri h: 23:15 poco_nuvoloso Poco Nuvoloso 22 22 100 1014 10 N 3.7
Ieri h: 22:45 poco_nuvoloso Poco Nuvoloso 23 23 100 1014 10 N 5.5
Ieri h: 22:15 poco_nuvoloso Poco Nuvoloso 23 23 100 1014 10 O 7.4
Ieri h: 21:45 poco_nuvoloso Poco Nuvoloso 24 23 94 1013 10 N 5.5
Ieri h: 21:15 poco_nuvoloso Poco Nuvoloso 24 24 100 1013 10 O/SO 9.3
Ieri h: 20:15 poco_nuvoloso Poco Nuvoloso 26 23 83 1013 10 O/SO 13
Ieri h: 19:45 sereno Sereno 27 24 83 1013 10 O 14.8
Ieri h: 19:15 poco_nuvoloso Poco Nuvoloso 27 23 78 1013 10 O 16.7
Ieri h: 18:45 poco_nuvoloso Poco Nuvoloso 27 23 78 1013 10 O/NO 20.3
Ieri h: 18:15 poco_nuvoloso Poco Nuvoloso 27 23 78 1013 10 O 22.2
Ieri h: 17:45 nuvoloso Nuvoloso 27 23 78 1013 10 O 24
Ieri h: 17:15 nuvoloso Nuvoloso 28 22 69 1013 10 O 22.2
Ieri h: 16:45 nuvoloso Nuvoloso 28 24 78 1013 10 O 20.3
Ieri h: 16:15 nuvoloso Nuvoloso 28 24 78 1014 10 O/NO 20.3
Ieri h: 15:45 nuvoloso Nuvoloso 28 24 78 1014 10 O 18.5
Ieri h: 15:15 nuvoloso Nuvoloso 28 24 78 1014 10 O 22.2
Ieri h: 14:45 nuvoloso Nuvoloso 28 23 74 1014 10 O 18.5
Ieri h: 14:15 poco_nuvoloso Poco Nuvoloso 29 23 70 1014 10 SO 16.7
Ieri h: 13:45 poco_nuvoloso Poco Nuvoloso 29 23 70 1014 10 S/SO 18.5
Ieri h: 13:15 poco_nuvoloso Poco Nuvoloso 29 23 70 1014 10 S/SO 18.5
Ieri h: 12:45 nuvoloso Nuvoloso 28 23 74 1014 10 S 18.5